TimeAEST,TemperatureF,Dew PointF,Humidity,Sea Level PressureIn,VisibilityMPH,Wind Direction,Wind SpeedMPH,Gust SpeedMPH,PrecipitationIn,Events,Conditions,WindDirDegrees,DateUTC
12:00 AM,61,59,92,30.17,,SW,4.6,,,,Overcast,220,2013-06-10 14:00:00
12:00 AM,60.8,59.0,94,30.15,6.2,SW,4.6,-,N/A,,Overcast,220,2013-06-10 14:00:00
12:30 AM,60.8,59.0,94,30.15,6.2,SE,3.5,-,N/A,,Overcast,130,2013-06-10 14:30:00
1:04 AM,60.8,59.0,94,30.15,3.7,Calm,Calm,-,N/A,,Overcast,0,2013-06-10 15:04:00
1:30 AM,60.8,59.0,94,30.12,4.3,West,1.2,-,N/A,,Overcast,270,2013-06-10 15:30:00
1:39 AM,60.8,59.0,94,30.12,6.2,WNW,1.2,-,N/A,,Overcast,290,2013-06-10 15:39:00
1:46 AM,60.8,60.8,100,30.12,3.7,NNW,3.5,-,N/A,,Overcast,340,2013-06-10 15:46:00
2:00 AM,60.8,60.8,100,30.12,6.2,WNW,4.6,-,N/A,,Overcast,290,2013-06-10 16:00:00
2:04 AM,60.8,60.8,100,30.12,6.2,WNW,5.8,-,N/A,,Overcast,290,2013-06-10 16:04:00
2:30 AM,60.8,60.8,100,30.12,6.2,WSW,4.6,-,N/A,,Overcast,250,2013-06-10 16:30:00
3:00 AM,60.8,60.8,100,30.12,6.2,South,3.5,-,N/A,,Overcast,190,2013-06-10 17:00:00
3:30 AM,60.8,59.0,94,30.09,6.2,Calm,Calm,-,N/A,,Overcast,0,2013-06-10 17:30:00
4:00 AM,60.8,59.0,94,30.09,6.2,SSW,3.5,-,N/A,,Overcast,210,2013-06-10 18:00:00
4:30 AM,60.8,59.0,94,30.09,6.2,SSW,4.6,-,N/A,,Overcast,210,2013-06-10 18:30:00
5:00 AM,60.8,59.0,94,30.09,6.2,WSW,6.9,-,N/A,,Overcast,240,2013-06-10 19:00:00
5:30 AM,60.8,59.0,94,30.09,6.2,WSW,1.2,-,N/A,,Mostly Cloudy,240,2013-06-10 19:30:00
6:00 AM,60,59,96,30.11,,WSW,6.9,,,,Overcast,240,2013-06-10 20:00:00
6:00 AM,60.8,59.0,94,30.09,6.2,WSW,6.9,-,N/A,,Overcast,240,2013-06-10 20:00:00
6:30 AM,60.8,59.0,94,30.12,6.2,WSW,2.3,-,N/A,,Overcast,240,2013-06-10 20:30:00
7:00 AM,60.8,59.0,94,30.12,6.2,Calm,Calm,-,N/A,,Overcast,0,2013-06-10 21:00:00
7:30 AM,60.8,59.0,94,30.12,6.2,Calm,Calm,-,N/A,,Overcast,0,2013-06-10 21:30:00
8:00 AM,62.6,59.0,88,30.12,6.2,SW,3.5,-,N/A,,Overcast,220,2013-06-10 22:00:00
8:30 AM,64.4,60.8,88,30.12,6.2,SSW,2.3,-,N/A,,Scattered Clouds,210,2013-06-10 22:30:00
9:00 AM,68,61,71,30.14,,Calm,Calm,,,,Overcast,,2013-06-10 23:00:00
9:00 AM,68.0,60.8,78,30.12,6.2,Calm,Calm,-,N/A,,Mostly Cloudy,0,2013-06-10 23:00:00
9:30 AM,69.8,60.8,73,30.12,6.2,North,4.6,-,N/A,,Unknown,350,2013-06-10 23:30:00
10:00 AM,71.6,60.8,69,30.12,6.2,North,4.6,-,N/A,,Scattered Clouds,360,2013-06-11 00:00:00
10:30 AM,71.6,60.8,69,30.12,6.2,NNE,8.1,-,N/A,,Scattered Clouds,20,2013-06-11 00:30:00
11:00 AM,71.6,59.0,64,30.12,6.2,North,6.9,-,N/A,,Scattered Clouds,10,2013-06-11 01:00:00
11:30 AM,73.4,60.8,65,30.09,6.2,North,6.9,-,N/A,,Overcast,10,2013-06-11 01:30:00
12:00 PM,72,60,58,30.10,,North,9.2,,,,,10,2013-06-11 02:00:00
12:00 PM,71.6,60.8,69,30.09,6.2,North,9.2,-,N/A,,Scattered Clouds,10,2013-06-11 02:00:00
12:30 PM,73.4,60.8,65,30.06,6.2,NNE,8.1,-,N/A,,Unknown,20,2013-06-11 02:30:00
1:00 PM,71.6,59.0,64,30.06,6.2,North,8.1,-,N/A,,Mostly Cloudy,10,2013-06-11 03:00:00
1:30 PM,73.4,62.6,69,30.06,6.2,North,10.4,-,N/A,,Overcast,10,2013-06-11 03:30:00
2:00 PM,71.6,60.8,69,30.04,6.2,North,9.2,-,N/A,,Mostly Cloudy,10,2013-06-11 04:00:00
2:30 PM,71.6,60.8,69,30.04,6.2,North,9.2,-,N/A,,Overcast,10,2013-06-11 04:30:00
3:00 PM,71,63,68,30.06,,North,8.1,,,,,10,2013-06-11 05:00:00
3:00 PM,71.6,62.6,73,30.04,6.2,North,8.1,-,N/A,,Overcast,10,2013-06-11 05:00:00
3:30 PM,71.6,62.6,73,30.04,6.2,North,9.2,-,N/A,,Overcast,10,2013-06-11 05:30:00
4:00 PM,69.8,62.6,78,30.04,6.2,NNE,9.2,-,N/A,,Overcast,20,2013-06-11 06:00:00
4:30 PM,69.8,62.6,78,30.06,6.2,NNE,9.2,-,N/A,,Overcast,20,2013-06-11 06:30:00
5:00 PM,69.8,62.6,78,30.06,6.2,NNE,8.1,-,N/A,,Overcast,20,2013-06-11 07:00:00
5:30 PM,69.8,62.6,78,30.06,6.2,NNE,9.2,-,N/A,,Overcast,20,2013-06-11 07:30:00
6:00 PM,69,63,74,30.08,,NNE,9.2,,,,,20,2013-06-11 08:00:00
6:00 PM,69.8,62.6,78,30.06,6.2,NNE,9.2,-,N/A,,Overcast,20,2013-06-11 08:00:00
6:30 PM,69.8,62.6,78,30.06,6.2,NNE,6.9,-,N/A,,Overcast,20,2013-06-11 08:30:00
7:00 PM,69.8,62.6,78,30.09,6.2,North,9.2,-,N/A,,Overcast,10,2013-06-11 09:00:00
7:30 PM,68.0,62.6,83,30.09,6.2,North,8.1,-,N/A,,Overcast,10,2013-06-11 09:30:00
8:00 PM,68.0,64.4,88,30.09,6.2,North,8.1,-,N/A,,Mostly Cloudy,10,2013-06-11 10:00:00
8:30 PM,68.0,62.6,83,30.09,6.2,NNE,13.8,-,N/A,,Overcast,30,2013-06-11 10:30:00
9:00 PM,68,64,83,30.11,,NNE,10.4,,,,Overcast,30,2013-06-11 11:00:00
9:00 PM,68.0,64.4,88,30.09,6.2,NNE,10.4,-,N/A,,Overcast,30,2013-06-11 11:00:00
9:30 PM,68.0,64.4,88,30.09,6.2,North,9.2,-,N/A,,Mostly Cloudy,10,2013-06-11 11:30:00
10:00 PM,69.8,64.4,83,30.09,6.2,North,9.2,-,N/A,,Scattered Clouds,10,2013-06-11 12:00:00
10:30 PM,66.2,62.6,88,30.09,6.2,WSW,4.6,-,N/A,,Scattered Clouds,250,2013-06-11 12:30:00
11:00 PM,64.4,62.6,94,30.06,6.2,SW,4.6,-,N/A,,Scattered Clouds,230,2013-06-11 13:00:00
11:30 PM,66.2,64.4,94,30.06,6.2,ENE,1.2,-,N/A,,Overcast,70,2013-06-11 13:30:00
11:44 PM,66.2,62.6,88,30.06,3.1,Calm,Calm,-,N/A,,Overcast,0,2013-06-11 13:44:00
11:50 PM,64.4,62.6,94,30.06,1.6,Calm,Calm,-,N/A,,Overcast,0,2013-06-11 13:50:00